Temp
14 14 14 15 15 15 16 16 16 16 17 17 17 17 17 17 16 16 15 14 14 13 13 12 12 11 11 11 10 10 9 9 9 9 8 8 8 9 9 9 9 8 8 8
13 14 15 15 15 15 16 16 16 16 17 17 17 17 17 17 16 16 15 14 14 13 13 12 12 12 11 11 11 10 10 9 9 9 9 9 9 9 9 9 9 9 8 8
13 14 15 15 15 15 16 16 16 16 16 16 16 17 16 17 16 16 15 15 14 13 13 12 12 12 11 11 11 11 11 10 10 9 10 10 10 9 9 10 9 8 8 8
13 14 15 15 14 15 15 16 16 16 16 16 16 17 17 17 16 16 15 15 14 13 13 12 13 13 12 11 11 11 11 10 10 10 10 10 10 9 9 8 9 9 9 10
13 14 14 15 15 15 16 16 16 17 16 16 15 15 17 17 17 17 15 15 14 13 13 13 14 14 13 13 12 11 11 11 11 10 10 10 10 9 9 9 9 10 10 10
13 14 14 15 15 15 16 16 17 17 16 16 16 15 17 17 17 16 15 15 14 13 13 14 14 14 14 13 12 12 11 11 11 11 11 11 11 10 10 9 9 9 9 9
13 14 14 15 15 16 16 16 17 17 17 17 15 14 17 17 17 17 15 15 14 14 14 14 14 14 14 13 13 12 12 11 11 11 11 11 10 10 10 9 9 9 9 9
13 14 14 15 16 16 17 16 17 17 17 18 15 16 17 17 17 16 16 14 14 14 14 14 14 14 13 13 13 13 12 12 11 11 11 10 10 10 9 9 9 9 9 9
13 14 15 16 16 16 17 17 17 17 15 15 16 17 17 18 17 16 15 14 14 14 14 14 14 13 13 13 13 12 12 12 11 11 11 10 10 10 9 9 9 9 9 9
14 14 15 16 16 17 17 17 16 16 16 16 17 16 17 17 16 15 15 15 14 14 13 13 13 13 13 12 12 12 12 11 11 11 10 10 9 9 9 9 9 9 8 8
13 14 15 16 16 17 17 16 16 17 16 18 17 18 17 17 17 16 15 15 14 13 13 14 13 13 12 12 12 11 11 11 11 10 10 10 10 9 9 10 9 9 8 8
14 14 15 16 17 16 16 16 16 17 15 15 14 17 17 17 16 16 15 14 14 14 14 14 13 13 13 12 12 11 11 10 10 10 10 9 9 9 9 9 9 9 9 9
14 14 15 16 16 16 16 17 17 17 17 16 17 17 17 17 17 16 15 15 14 14 15 14 14 14 13 12 12 11 10 10 9 9 9 9 9 8 8 8 9 9 8 8
14 15 16 17 17 17 16 17 17 17 17 16 16 17 17 16 16 17 16 15 15 15 15 14 13 13 12 11 11 10 11 10 9 8 9 9 8 8 8 8 8 8 8 9
15 15 15 16 16 16 16 17 17 16 16 17 17 17 17 16 17 17 16 16 16 15 15 14 14 12 11 11 9 9 10 9 8 8 8 7 8 8 8 9 8 8 8 8
14 15 15 15 16 16 16 16 16 16 16 16 16 16 16 16 16 16 16 16 16 16 15 14 12 12 12 12 10 9 10 10 8 8 8 7 7 7 7 8 8 7 7 8
15 15 15 15 15 16 15 16 16 16 16 16 16 16 16 16 16 16 16 16 16 15 15 13 12 12 12 11 10 10 11 10 9 8 8 7 8 7 7 7 7 7 7 8
17 16 15 15 14 15 16 16 16 16 16 15 15 15 16 16 16 16 16 16 15 15 14 12 12 12 11 11 11 10 9 9 8 8 8 7 7 8 7 7 7 7 7 7
16 15 15 14 14 15 16 16 17 16 16 16 16 15 15 15 15 16 15 15 14 13 12 12 12 11 11 11 10 9 9 8 7 7 7 7 7 7 7 7 7 7 7 7
15 15 15 14 14 16 16 17 17 16 15 16 15 15 15 15 14 14 14 14 13 12 11 11 11 11 11 10 9 8 8 7 7 7 7 7 7 6 6 7 7 6 6 6
15 15 15 15 15 15 16 16 16 14 15 15 15 14 14 14 14 13 13 13 12 11 11 10 10 10 10 9 8 8 7 7 7 6 6 6 6 6 7 7 7 7 7 7
15 15 14 14 14 14 15 15 14 14 14 14 13 13 13 13 13 12 12 12 11 7 6 9 9 8 8 8 8 7 6 6 6 6 6 7 6 6 6 7 7 7 7 7
14 14 14 14 15 15 14 14 14 14 13 13 12 12 12 12 12 12 11 11 10 9 7 7 8 8 8 7 6 6 6 6 6 6 6 6 6 6 7 7 7 7 7 7
14 14 13 14 14 13 13 13 13 13 12 12 12 11 11 11 11 11 11 11 10 8 8 8 8 8 7 7 6 6 6 6 6 6 7 7 7 7 7 7 7 7 7 8
13 13 13 13 13 12 12 12 12 12 11 12 12 11 11 11 10 10 10 10 9 8 8 8 7 7 7 6 6 6 6 6 7 7 7 7 7 7 8 7 7 7 7 8
13 13 12 12 12 12 12 11 11 11 11 11 11 11 11 10 10 10 9 9 8 8 8 7 7 7 6 6 6 6 6 6 7 7 7 7 7 7 7 7 7 7 7 7
Height
3187 3192 3194 3197 3199 3199 3199 3199 3199 3198 3197 3196 3195 3195 3194 3194 3194 3194 3195 3195 3196 3196 3196 3195 3195 3195 3195 3195 3196 3197 3197 3198 3200 3201 3201 3201 3201 3200 3199 3199 3199 3199 3197 3197
3186 3188 3193 3195 3197 3198 3198 3198 3199 3197 3195 3195 3194 3194 3193 3193 3193 3193 3193 3194 3195 3195 3195 3195 3195 3195 3195 3194 3194 3195 3196 3197 3198 3199 3199 3200 3200 3200 3199 3196 3195 3194 3193 3193
3183 3187 3190 3193 3195 3196 3197 3198 3197 3196 3193 3193 3194 3193 3192 3192 3190 3191 3192 3192 3193 3194 3195 3195 3194 3194 3194 3194 3195 3195 3196 3196 3197 3197 3197 3198 3199 3198 3189 3187 3188 3182 3191 3191
3181 3184 3188 3190 3193 3194 3195 3197 3195 3193 3193 3194 3194 3194 3190 3189 3188 3188 3190 3191 3192 3192 3193 3193 3193 3192 3192 3192 3193 3193 3195 3196 3196 3195 3194 3195 3194 3194 3192 3188 3187 3189 3189 3187
3180 3181 3185 3187 3190 3192 3194 3194 3193 3191 3191 3192 3192 3195 3188 3187 3185 3185 3187 3190 3191 3191 3191 3191 3191 3191 3191 3190 3191 3192 3194 3195 3194 3194 3194 3194 3193 3192 3191 3190 3188 3185 3181 3178
3177 3179 3182 3185 3188 3190 3192 3192 3191 3191 3191 3193 3191 3192 3187 3184 3184 3183 3185 3189 3190 3191 3190 3189 3190 3191 3192 3192 3192 3193 3194 3194 3193 3193 3193 3193 3192 3189 3187 3184 3183 3181 3179 3175
3173 3176 3179 3182 3186 3187 3189 3189 3189 3190 3189 3189 3189 3190 3185 3183 3181 3181 3183 3187 3189 3189 3189 3189 3190 3192 3191 3191 3192 3193 3194 3194 3194 3193 3192 3191 3189 3188 3186 3183 3181 3179 3176 3172
3171 3176 3176 3179 3182 3185 3185 3186 3186 3187 3186 3186 3187 3186 3183 3181 3179 3179 3180 3185 3187 3189 3190 3189 3189 3191 3191 3190 3190 3191 3193 3194 3194 3192 3191 3190 3188 3187 3185 3183 3180 3177 3173 3168
3168 3171 3172 3176 3179 3182 3181 3183 3185 3185 3186 3186 3185 3182 3181 3179 3177 3176 3179 3182 3186 3188 3189 3189 3189 3189 3189 3189 3190 3191 3191 3191 3191 3191 3189 3187 3187 3185 3182 3179 3177 3173 3169 3165
3166 3170 3170 3173 3176 3178 3179 3181 3183 3183 3184 3183 3181 3180 3178 3176 3175 3175 3177 3181 3184 3186 3185 3185 3187 3187 3187 3187 3188 3189 3189 3188 3188 3188 3187 3185 3184 3182 3179 3175 3172 3168 3165 3162
3163 3165 3169 3171 3173 3173 3175 3176 3178 3179 3181 3179 3179 3177 3175 3174 3173 3173 3176 3180 3182 3182 3182 3184 3185 3186 3186 3186 3185 3185 3186 3186 3186 3186 3185 3183 3181 3178 3174 3171 3167 3165 3162 3159
3160 3163 3165 3168 3169 3170 3171 3172 3174 3175 3178 3177 3177 3176 3174 3172 3171 3172 3174 3176 3178 3179 3180 3182 3183 3184 3184 3184 3183 3182 3181 3182 3183 3183 3182 3180 3176 3173 3170 3167 3164 3161 3157 3154
3157 3161 3163 3165 3169 3169 3170 3169 3171 3172 3173 3173 3175 3174 3172 3171 3170 3170 3171 3172 3175 3177 3177 3178 3180 3180 3180 3180 3180 3179 3179 3178 3180 3180 3179 3177 3174 3170 3167 3164 3161 3159 3155 3151
3156 3157 3160 3163 3164 3166 3166 3167 3168 3170 3171 3171 3171 3171 3170 3169 3169 3168 3169 3170 3173 3174 3175 3176 3178 3178 3179 3178 3177 3176 3177 3177 3177 3177 3176 3175 3173 3169 3165 3163 3160 3157 3154 3149
3153 3156 3158 3160 3162 3163 3164 3165 3166 3167 3169 3169 3169 3169 3169 3167 3166 3167 3167 3168 3169 3170 3172 3173 3174 3177 3176 3172 3167 3170 3171 3172 3174 3174 3173 3171 3169 3166 3163 3159 3155 3152 3149 3146
3148 3153 3156 3158 3159 3161 3162 3163 3165 3166 3166 3167 3167 3167 3167 3165 3164 3164 3164 3165 3167 3167 3169 3170 3172 3173 3173 3169 3164 3167 3168 3168 3170 3169 3168 3167 3165 3162 3158 3155 3152 3148 3145 3141
3144 3148 3153 3156 3156 3158 3161 3160 3162 3163 3163 3164 3165 3165 3165 3163 3162 3160 3160 3162 3163 3164 3166 3168 3169 3169 3169 3166 3166 3167 3167 3167 3167 3167 3165 3164 3160 3157 3155 3150 3147 3144 3141 3137
3140 3144 3149 3152 3155 3158 3156 3156 3158 3160 3159 3160 3160 3161 3161 3160 3159 3158 3159 3159 3161 3163 3163 3163 3165 3166 3167 3165 3165 3166 3166 3165 3164 3163 3161 3158 3156 3153 3150 3146 3143 3139 3135 3131
3137 3140 3145 3149 3151 3153 3152 3153 3155 3155 3156 3156 3156 3156 3156 3156 3156 3157 3156 3156 3158 3160 3159 3160 3163 3164 3164 3165 3165 3165 3164 3163 3162 3160 3158 3154 3151 3148 3145 3141 3137 3133 3130 3127
3136 3140 3144 3145 3147 3148 3148 3149 3150 3151 3150 3152 3152 3152 3152 3151 3150 3151 3150 3150 3149 3153 3154 3158 3161 3163 3163 3164 3163 3162 3161 3160 3159 3156 3153 3149 3146 3142 3138 3134 3130 3127 3123 3119
3136 3139 3141 3142 3143 3144 3144 3145 3146 3149 3151 3147 3148 3147 3147 3147 3147 3146 3144 3143 3145 3147 3153 3155 3156 3160 3161 3161 3161 3159 3158 3156 3154 3151 3147 3143 3139 3135 3132 3129 3124 3120 3117 3113
3135 3138 3139 3140 3141 3143 3141 3141 3144 3144 3143 3144 3144 3144 3144 3143 3141 3141 3140 3145 3140 3134 3141 3150 3152 3156 3159 3158 3157 3156 3154 3152 3148 3145 3140 3136 3133 3129 3125 3122 3118 3114 3110 3107
3133 3135 3136 3138 3137 3137 3136 3137 3138 3139 3140 3140 3142 3142 3141 3140 3141 3141 3141 3140 3140 3139 3140 3153 3149 3154 3156 3154 3153 3152 3149 3145 3141 3137 3134 3130 3126 3122 3118 3114 3110 3106 3101 3097
3128 3130 3131 3133 3132 3133 3133 3134 3135 3137 3138 3138 3141 3141 3140 3140 3140 3139 3138 3137 3136 3138 3146 3146 3148 3151 3151 3149 3148 3145 3141 3137 3133 3130 3126 3122 3118 3114 3109 3105 3100 3096 3092 3088
3125 3125 3126 3127 3128 3128 3129 3130 3132 3133 3135 3137 3138 3140 3141 3140 3140 3139 3138 3138 3137 3139 3142 3145 3147 3147 3147 3146 3142 3139 3135 3132 3127 3124 3119 3115 3111 3108 3104 3100 3095 3090 3084 3079
3121 3123 3124 3123 3124 3124 3126 3127 3129 3131 3133 3133 3135 3138 3139 3140 3139 3138 3137 3137 3138 3139 3141 3143 3144 3144 3144 3141 3138 3134 3131 3127 3123 3119 3115 3111 3107 3102 3098 3094 3090 3085 3080 3075
Wind_Speed
22 20 20 18 11 6 7 7 11 13 11 8 7 9 11 8 9 7 4 2 1 4 5 3 3 2 4 5 5 2 3 7 11 9 8 10 11 16 18 17 14 12 12 13
21 21 23 19 14 10 10 9 11 9 15 6 8 9 9 10 10 10 6 3 2 1 5 6 4 2 1 4 3 4 4 3 9 13 13 13 14 15 24 20 23 15 14 16
19 17 24 21 17 13 13 9 11 12 12 6 9 13 13 12 14 13 8 2 2 5 3 4 3 6 7 4 2 5 5 5 7 10 12 13 11 23 24 30 20 6 11 18
18 17 22 25 18 17 11 7 11 12 6 3 7 6 14 15 16 16 10 2 4 6 4 3 1 5 10 8 5 3 6 6 7 7 11 10 8 13 14 11 5 11 15 18
13 19 21 18 18 15 9 11 10 9 3 3 8 7 14 13 16 16 13 4 6 6 4 3 2 1 1 4 5 5 4 6 6 6 6 6 8 11 9 7 9 15 22 28
13 12 17 24 15 12 10 13 8 5 3 4 7 7 11 12 9 12 15 7 6 7 3 3 3 3 2 1 0 4 2 2 4 5 6 7 7 10 13 15 17 20 22 27
19 16 16 16 15 15 13 9 4 4 3 4 4 3 10 10 9 7 10 9 9 8 5 4 2 2 4 5 4 1 2 2 3 3 5 8 9 11 13 16 18 21 20 22
16 15 19 16 17 13 10 7 5 4 6 7 5 6 5 16 10 8 9 14 11 6 6 4 2 1 4 5 4 3 3 2 2 4 5 8 10 12 15 17 20 22 19 17
17 13 14 13 13 8 8 7 10 6 2 3 5 11 15 10 12 8 8 15 10 12 10 7 3 1 5 5 3 3 3 3 3 5 10 13 14 17 19 21 21 22 21 20
14 11 12 15 15 10 12 9 4 6 3 7 5 8 10 12 10 10 13 16 14 14 12 8 6 5 3 2 1 3 3 4 7 9 11 14 16 20 24 24 22 19 17 17
13 12 11 15 9 9 13 16 11 8 5 4 3 7 7 10 9 4 12 14 13 16 10 4 3 2 1 2 3 2 3 5 7 10 14 17 23 25 22 21 21 17 16 16
23 9 7 10 6 4 7 11 16 9 7 8 3 8 1 18 10 3 13 17 17 15 10 8 8 10 11 7 6 6 4 2 6 11 17 20 21 21 19 18 20 21 18 17
28 11 7 7 4 5 9 8 12 15 9 9 4 5 9 14 11 4 14 16 13 13 14 13 13 14 13 11 9 6 4 1 5 11 16 21 20 18 18 19 20 21 21 19
27 17 14 13 8 7 15 11 10 12 8 6 10 8 9 12 6 6 6 10 12 16 15 15 15 16 13 13 22 24 18 6 7 9 16 20 19 18 15 19 19 19 22 21
30 24 21 19 11 8 14 13 13 13 10 5 5 5 11 11 9 7 8 9 6 8 8 11 15 11 16 25 22 19 24 11 6 8 16 21 24 21 24 28 30 33 32 23
30 18 18 16 15 15 13 13 16 13 12 12 11 7 9 11 11 11 11 12 8 12 10 11 3 8 14 11 4 12 15 10 5 6 12 18 25 27 30 35 38 41 38 31
25 26 23 13 11 10 8 16 16 15 13 11 11 9 9 13 15 18 16 10 8 9 12 7 8 9 5 3 5 12 12 8 8 13 16 20 21 25 32 36 38 44 39 32
22 26 21 10 11 5 10 11 14 16 15 15 15 12 12 13 15 15 13 11 11 11 9 14 6 5 4 1 5 7 8 10 11 15 21 21 22 26 32 37 43 44 37 32
11 22 13 10 17 8 13 10 11 16 18 18 18 16 16 18 18 15 12 12 9 10 14 13 5 8 7 5 4 7 11 12 15 17 22 25 26 31 34 41 43 38 34 32
13 15 13 16 8 10 15 15 16 19 22 22 20 17 17 17 16 16 17 18 19 22 20 13 7 7 8 5 7 12 13 15 17 18 26 25 29 34 40 41 35 36 35 34
13 14 10 10 8 8 13 15 17 12 17 14 14 14 11 13 16 18 19 23 22 22 21 12 2 5 5 6 10 11 12 15 18 22 26 31 35 36 33 34 34 34 33 32
8 6 8 9 8 9 15 16 18 16 13 11 11 13 13 11 8 7 10 17 22 21 3 3 4 5 6 6 6 8 10 15 21 27 31 31 30 30 32 33 32 32 34 34
10 15 13 14 13 17 15 13 18 20 12 10 5 3 4 2 6 11 14 15 12 18 6 7 4 2 3 5 8 10 16 21 25 27 27 27 28 30 32 33 34 34 35 37
12 15 17 17 17 16 17 11 13 15 12 8 2 3 4 7 8 7 12 12 9 13 11 8 3 2 6 10 15 19 26 30 30 29 29 30 31 31 33 34 35 35 36 36
17 16 17 17 18 19 16 10 9 10 11 10 6 5 5 7 9 6 7 5 8 10 6 2 2 6 11 14 17 22 30 31 28 28 28 29 29 29 30 31 32 33 34 36
13 13 10 12 9 7 6 7 10 11 8 7 10 7 2 2 6 6 4 4 5 4 4 3 3 8 12 16 21 26 33 30 27 27 26 26 27 28 29 29 30 31 31 33
Wind_Direction
214 215 221 233 246 274 277 312 333 339 347 297 258 264 271 268 265 273 252 253 280 27 57 70 113 222 56 98 147 109 183 214 221 231 237 236 229 231 239 242 246 255 259 264
208 213 221 233 242 269 271 297 326 326 324 305 283 266 275 267 262 259 240 221 202 44 74 86 119 145 143 73 96 155 186 208 239 236 237 252 259 286 296 264 252 244 261 267
204 211 220 237 241 261 265 297 323 327 321 295 269 273 269 275 266 265 260 274 153 129 117 89 88 172 191 159 130 217 192 193 242 246 248 259 288 324 330 289 271 255 290 286
208 207 222 233 242 257 269 287 323 326 306 251 250 274 288 284 279 272 254 226 163 131 117 128 46 183 184 192 157 218 223 232 247 248 263 274 308 295 330 4 6 305 304 302
202 209 213 222 238 244 259 290 311 303 247 231 243 238 277 295 291 280 258 217 163 145 101 88 48 31 198 194 185 209 220 231 246 250 253 270 281 299 318 327 321 329 329 320
196 194 207 225 234 224 246 275 273 276 246 258 254 231 290 298 321 280 246 196 159 138 108 50 22 80 61 27 276 233 263 238 260 292 287 293 312 329 337 343 340 332 325 330
206 200 201 207 213 224 243 245 206 220 203 269 248 239 281 311 298 285 242 179 160 129 87 54 55 61 26 29 17 4 302 285 248 291 310 319 332 329 333 336 331 327 327 336
199 214 210 203 202 229 218 219 229 242 255 291 239 243 287 327 322 284 233 190 171 120 99 92 162 57 53 48 44 24 353 351 318 317 318 330 326 328 327 326 323 322 324 329
199 218 205 199 193 187 216 223 249 237 227 261 254 279 314 324 325 259 221 183 171 109 97 88 101 70 45 36 18 337 328 329 334 330 334 334 330 329 327 326 322 319 319 328
185 203 191 192 202 222 218 235 191 211 221 251 260 285 300 333 317 244 210 183 175 140 134 123 113 110 94 133 61 316 306 309 314 322 333 333 330 324 323 322 325 324 316 318
198 186 173 187 193 214 226 223 216 214 194 247 274 294 321 348 344 169 192 187 196 182 176 177 261 275 208 210 193 211 287 301 312 324 330 328 322 322 326 330 333 334 320 310
207 210 205 184 199 222 265 211 213 226 214 214 248 299 303 359 358 283 178 195 199 201 215 227 250 277 278 273 244 227 206 289 323 329 328 329 330 329 330 336 338 337 337 331
201 216 184 161 176 212 231 207 213 230 241 220 217 302 312 332 345 339 206 221 216 229 232 236 255 272 272 272 284 269 233 173 332 335 337 340 344 342 346 343 343 346 338 335
208 214 201 189 186 214 208 204 209 206 209 227 244 304 334 355 328 285 231 219 218 228 240 256 264 272 284 293 298 284 273 287 317 337 339 336 352 352 354 9 9 357 347 336
210 217 226 231 246 280 220 225 228 228 242 241 275 272 321 332 252 228 230 193 200 237 260 277 285 292 308 316 276 250 258 225 269 346 347 337 328 337 355 357 358 355 351 348
202 207 223 243 255 254 244 235 231 238 241 259 263 264 288 288 296 279 247 215 227 239 254 273 265 265 316 326 127 213 217 209 232 316 324 326 324 333 328 336 347 345 344 343
196 210 222 233 248 242 220 216 227 232 235 235 235 252 273 277 274 280 255 240 219 254 268 238 220 287 301 343 224 228 244 257 275 292 311 314 327 332 331 336 335 334 335 336
199 210 209 222 188 191 224 211 233 237 244 244 249 259 276 280 288 295 224 223 239 234 237 189 278 298 274 242 249 265 274 287 293 300 316 315 310 317 323 325 326 326 327 328
187 205 195 192 201 223 231 227 253 256 263 266 267 269 269 278 273 274 245 237 213 223 203 246 259 304 287 270 309 289 287 288 295 300 311 313 310 317 317 317 318 320 321 322
174 180 197 187 191 215 239 251 263 255 255 266 266 265 282 287 273 274 258 235 205 221 217 221 247 291 262 263 278 286 289 290 301 298 306 310 307 309 311 313 315 315 317 318
161 187 213 225 221 248 251 257 256 229 270 276 260 271 269 271 269 272 257 235 216 212 225 214 270 200 233 240 269 278 283 288 294 297 301 303 304 305 307 309 310 311 312 313
206 215 220 230 230 257 259 253 234 251 255 273 272 263 264 289 289 276 263 244 230 241 53 195 157 230 243 246 283 299 299 300 300 301 305 309 307 304 306 308 307 306 306 306
239 241 246 241 254 260 259 255 249 245 260 262 268 297 277 316 329 328 342 313 281 298 129 182 163 194 290 342 338 306 314 323 322 316 312 308 309 310 310 311 310 310 309 308
255 251 244 253 259 263 266 254 256 256 238 202 151 149 84 50 57 11 358 18 61 123 158 147 134 317 339 335 329 334 337 332 326 321 316 315 314 314 315 313 313 313 311 309
238 240 251 260 269 270 266 257 243 237 225 230 287 197 119 47 40 27 4 74 111 124 142 152 268 325 328 326 327 331 334 328 321 319 318 316 315 314 314 315 315 316 316 315
243 254 259 259 268 253 226 217 228 226 211 272 250 208 173 0 6 16 8 64 116 158 186 214 277 308 319 321 323 324 325 321 318 317 317 317 317 319 321 321 319 318 316 314